This is the latest recevied weather packets stored in our database for station/object N8HON. If no packets are shown the sender has not sent any weather packets the latest 10 day(s).
| Time | Temp. | Humidity | Pressure | Rain* | Wind** | Luminosity | Snow |
|---|---|---|---|---|---|---|---|
| 1777827279 | 12.78° C | 39% | 1015.3 hPa | 0 mm | - | 494 W/m² | - |
| 1777826975 | 12.78° C | 42% | 1015.3 hPa | 0 mm | - | 692 W/m² | - |
| 1777826673 | 11.67° C | 42% | 1015.8 hPa | 0 mm | - | 707 W/m² | - |
| 1777826369 | 11.67° C | 42% | 1015.6 hPa | 0 mm | - | 686 W/m² | - |
| 1777826066 | 11.67° C | 41% | 1015.6 hPa | 0 mm | - | 665 W/m² | - |
| 1777825763 | 11.67° C | 39% | 1015.6 hPa | 0 mm | - | 641 W/m² | - |
| 1777825461 | 11.67° C | 43% | 1015.5 hPa | 0 mm | - | 675 W/m² | - |
| 1777825158 | 11.11° C | 42% | 1015.6 hPa | 0 mm | - | 677 W/m² | - |
| 1777824854 | 11.67° C | 44% | 1016 hPa | 0 mm | - | 645 W/m² | - |
| 1777824551 | 10.56° C | 41% | 1015.6 hPa | 0 mm | - | 513 W/m² | - |
| 1777824247 | 10° C | 40% | 1015.6 hPa | 0 mm | - | 481 W/m² | - |
| 1777823943 | 10.56° C | 40% | 1015.8 hPa | 0 mm | - | 538 W/m² | - |
| 1777823640 | 11.11° C | 41% | 1015.9 hPa | 0 mm | - | 617 W/m² | - |
| 1777823337 | 10° C | 45% | 1015.8 hPa | 0 mm | - | 588 W/m² | - |
| 1777823035 | 10° C | 45% | 1016 hPa | 0 mm | - | 610 W/m² | - |
| 1777822733 | 10° C | 43% | 1016.1 hPa | 0 mm | - | 633 W/m² | - |
| 1777822431 | 10° C | 43% | 1016.2 hPa | 0 mm | - | 599 W/m² | - |
| 1777822128 | 10° C | 44% | 1016.2 hPa | 0 mm | - | 624 W/m² | - |
| 1777821825 | 8.33° C | 49% | 1016.3 hPa | 0 mm | - | 698 W/m² | - |
| 1777821522 | 8.89° C | 46% | 1016.1 hPa | 0 mm | - | 660 W/m² | - |
| 1777821220 | 10° C | 50% | 1016.1 hPa | 0 mm | - | 710 W/m² | - |
| 1777820917 | 9.44° C | 48% | 1016.1 hPa | 0 mm | - | 755 W/m² | - |
| 1777820613 | 8.89° C | 49% | 1016.3 hPa | 0 mm | - | 670 W/m² | - |
| 1777820310 | 9.44° C | 48% | 1016.3 hPa | 0 mm | - | 599 W/m² | - |
| 1777820008 | 9.44° C | 47% | 1016.2 hPa | 0 mm | - | 586 W/m² | - |
* Rain latest hour (hover to see other rain measurements)
** Current wind speed in m/s (hover to see current wind gust speed)